星链-37301(STARLINK-37301)

导读

STARLINK-37301(NORAD编号68954)是美国SpaceX公司星链(Starlink)卫星互联网星座的一员,属于星链项目规模化部署阶段发射的低轨通信卫星。星链项目计划在近地轨道部署上万颗卫星,为全球提供高带宽、低延迟的互联网接入服务,覆盖偏远地区,也可支持军事与应急通信场景。该卫星运行于近地轨道,参与构建全球卫星互联网络,推动全球网络覆盖,但星链的大规模扩张也引发了太空拥堵、天文观测干扰等争议。作为星链星座的常规组网卫星,STARLINK-37301承担着星链网络节点通信转发功能,助力星座服务能力的持续扩展。

基本信息
目录编号:
68954
目录名称:
STARLINK-37301
国际标识:
2026-099D
轨道中心:
EARTH
卫星名称:
星链-37301
卫星全名:
星链-37301(STARLINK-37301)
卫星状态:
在轨 (已飞行135 天)
发射日期:
2026-05-01 UTC
国别 :
美国 (US)
星等 :
--
该卫星已列入 空间交会检测服务 Space Conjunction Data Service (SCDS) ,当前飞行风险评估等级: 高风险
轨道信息
数据来源 国际轨道数据
星历时间: 2026-09-13T10:03:02+0800
9小时前
查看轨道信息
半长轴: 6840.83km
偏心率: 0.0000973
轨道倾角: 53.156°
近地点辐角 84.898°
升交点赤经 110.639°
平近点角 275.214°
近地点: 462.027km
远地点: 463.359km
周期: 93.848分钟
每日圈数: 15.344036
详细信息
固有亮度:
5
最大亮度:
2.5
卫星平台:
Starlink V1.0
覆盖范围:
全球
运营商:
太空探索技术公司
运营商所在国:
美国
制造商(研发单位):
太空探索技术公司
制造商所在国:
美国
使用方式:
暂无
卫星简介
Starlink 计划是 SpaceX 推出的全球卫星互联网项目,通过发射低轨道卫星,为全球尤其是偏远地区提供高速、低延迟的互联网服务。自 2019 年起,Starlink 已部署数千颗卫星,旨在缩小全球数字鸿沟,推动互联网普及。该项目还为军事、航空等行业提供通信支持,带来广泛经济效益。
2D轨道图
3D轨道图
轨道高度分析图
轨道倾角分析图
轨道综合分析图
查看轨道综合分析图
交会数据列表
事件ID 空间交会对象 最接近时刻(TCA) 交会距离 交会风险概率(CRP) 交会风险指数(CRI) 操作
CDM_260915-020306-638906-895421
2026-09-15T
02:03:19+0000
0.256 km
中距离
3.961362E-4 高风险 0.87
CDM_260915-231606-059006-895421
2026-09-15T
23:16:35+0000
0.409 km
远距离
1.610854E-4 高风险 0.79
CDM_260914-172706-638906-895421
2026-09-14T
17:27:29+0000
0.440 km
远距离
1.434634E-4 高风险 0.78
CDM_260915-125900-635006-895421
2026-09-15T
12:59:41+0000
1.612 km
极远距离
1.610574E-6 低风险 0.39
CDM_260915-105805-481006-895421
2026-09-15T
10:58:33+0000
2.937 km
极远距离
1.193092E-6 低风险 0.37
CDM_260915-002906-638906-895421
2026-09-15T
00:29:32+0000
2.177 km
极远距离
1.181724E-6 低风险 0.36
CDM_260914-190106-638906-895421
2026-09-14T
19:01:17+0000
2.269 km
极远距离
1.088626E-6 低风险 0.36
CDM_260914-155306-638906-895421
2026-09-14T
15:53:42+0000
2.272 km
极远距离
1.085552E-6 低风险 0.36
CDM_260915-033706-638906-895421
2026-09-15T
03:37:06+0000
2.704 km
极远距离
8.126753E-7 极低风险 0.33
与全量物体交会距离演化趋势
与全量物体交会风险概率演化趋势